Погода в Слаутном

Россия / Камчатский край     63°10′12″N   167°58′23″E
темп.,
°C
ветер,
м/с
пор.,
м/с
влажн.,
%
обл.,
%
осадки,
мм/ч
давл.,
гПа
погр.,
м
28 ноября, вс
вс2800:00−22ссв91296100 1.4 1019321
03:00−21ссв81190100 0.0 1019301
06:00−22ссв61091100 0.0 1019246
09:00−22ссв6991100 0.0 1019199
12:00−24ссв4793100 0.0 1018123
15:00−24ссв4794100 0.0 1018135
18:00−23ссв4694100 0.0 1017138
21:00−23ссв349479 0.0 101749
29 ноября, пн
пн2900:00−27ссв339722 0.0 101725
03:00−28ссв33985 0.0 101725
06:00−29ссв229924 0.0 101720
09:00−30ссв22995 0.0 101721
12:00−29ссв229818 0.0 101730
15:00−27ссв3397100 0.0 101651
18:00−27ссв3396100 0.0 101631
21:00−26ссв3396100 0.0 101536
30 ноября, вт
вт3000:00−25ссв3495100 0.0 101441
03:00−21ссв3592100 0.0 101288
06:00−18ссв5689100 0.0 1010117
09:00−17ссв5792100 0.2 1008143
12:00−19ссв6795100 0.4 1007143
15:00−20ссв5795100 0.3 1006151
18:00−20ссв6798100 0.6 1005160
21:00−21с4699100 0.7 1005180
1 декабря, ср
ср100:00−21с1299100 1.8 1006129
03:00−21с129983 0.4 100853
06:00−26ссв11100100 0.4 100910
09:00−25ссв2299100 0.0 101028
12:00−23с2494100 0.0 1012106
15:00−22с2493100 0.0 101381
18:00−22с2293100 0.0 101540
21:00−22сз1194100 0.0 101713
2 декабря, чт
чт200:00−26зюз2297100 0.0 102012
03:00−32ююз2210021 0.0 102410
06:00−34зсз0010041 0.0 10269
09:00−35св1110060 0.0 10289
12:00−34ссв2210080 0.0 102825
15:00−31ссв4699100 0.0 102686
18:00−27ссв5997100 0.0 1022169
21:00−20ссв91291100 0.0 1014300